Powrót do katalogu

OPS 3148

AktywnyMilitariaMEO
NORAD 3889·PAYLOAD·🇺🇸 United States

Wystrzelony Apr 13, 1969 z Cape Canaveral Space Force Station

Loading…

Następne Przeloty (najbliższe 24 godziny)

TLE

ŚwieżeSource: Mike McCants

Epoka: Sep 15, 2026, 00:58 UTC

1 03889U 69036A   26258.04029409  .00000000  00000-0  00000-0 0    06
2 03889  13.7058  38.1903 0963801 196.5970 160.0204  1.00384454 16618

Śledź OPS 3148 w czasie rzeczywistym z AllMySat

Download on the App Store